Погода в Березове

Россия / Кемеровская область (Кузбасс)     55°14′01″N   86°14′35″E
темп.,
°C
ветер,
м/с
пор.,
м/с
влажн.,
%
обл.,
%
осадки,
мм/ч
давл.,
гПа
погр.,
м
23 апреля, пт
пт2301:00−2ссв310875 0.0 1043253
04:00−3ссв38875 0.0 1042212
07:00−2ссв410825 0.0 1043300
10:00+2св610605 0.0 10431164
13:00+4св710545 0.0 10421427
16:00+5св69525 0.0 10411566
19:00+4св49610 0.0 10411023
22:000ссв4107934 0.0 1040205
24 апреля, сб
сб2401:000ссв41276100 0.0 1039303
04:00−1ссв51281100 0.0 1037321
07:000ссв51279100 0.0 1036392
10:00+3св5965100 0.0 1034755
13:00+4ссв5865100 0.1 10331207
16:00+5с4764100 0.4 10311213
19:00+4с4773100 0.9 1031862
22:00+2с238357 0.1 103250
25 апреля, вс
вс2501:000ссз228530 0.1 103122
04:000ссз228475 0.0 103220
07:00+1сз118061 0.0 103362
10:00+5зсз236279 0.0 1032741
13:00+7зсз234699 0.1 10311767
16:00+8сз334693 0.0 10311528
19:00+8с335259 0.1 10311139
22:00+4в11735 0.0 103111
26 апреля, пн
пн2601:00+2юв11775 0.0 103110
04:00+1вюв11825 0.0 103110
07:00+1вюв11805 0.0 103153
10:00+6юв33625 0.0 1031507
13:00+10ююв22475 0.0 10291402
16:00+11ююв344127 0.0 10271830
19:00+11ююв3547100 0.0 1026643
22:00+6юв36696 0.0 1026117
27 апреля, вт
вт2701:00+5ююв227670 0.0 102428
04:00+4юв387896 0.0 1022179
07:00+4юв4976100 0.0 1020254
10:00+6ю498060 0.6 1019395
13:00+13з7103793 1.1 10182493
16:00+14з71032100 0.0 10182877
19:00+12зюз5942100 0.0 1018601
22:00+10юз5853100 0.0 1018392